[[{"header":{"parameterUnit":"m.s-1","parameterCategory":1,"la1":30.2991,"la2":30.254,"lo1":-89.0895,"lo2":-89.0444,"dy":0.0017,"dx":0.0017,"nx":28,"ny":28,"refTime":"2025-05-14T21:00:00:Z","depth":0,"parameterNumber":2,"parameterNumberName":"U-component_of_WINDS"},"data":[0,0,0,0,0,0,0,0,0,0,0,0,0,0,0,0,0,0,0,0,0,0,0,0,0,0,0,0,0,0,0,0,0,0,0,0,0,0,0,0,0,0,0,0,0,0,0,0,0,0,0,0,0,0,0,0,0,0,2.3269,2.3269,0,2.33,2.33,2.33,2.3263,2.3261,2.326,2.3259,2.3289,2.3291,2.3293,0,0,0,0,0,0,0,0,0,0,0,0,0,2.3176,2.3177,2.3269,2.3269,2.327,2.3299,2.33,2.33,2.3263,2.3261,2.326,2.3258,2.3289,2.3291,2.3294,0,0,0,0,0,0,0,0,0,0,0,0,0,2.3212,2.3178,2.3269,2.3255,2.3254,2.3299,2.33,2.33,2.3263,2.3261,2.3259,2.3257,2.3288,2.3291,2.3294,2.3355,0,0,2.3304,2.3305,0,0,0,0,0,0,0,0,2.321,2.3216,2.3256,2.3256,2.3255,2.3275,2.3278,2.3319,2.3264,2.326,2.3259,2.3256,2.3286,2.3289,2.33,2.3356,2.3358,2.3304,2.3306,2.3307,2.3308,0,0,0,0,0,0,0,2.3208,2.3214,2.3281,2.3257,2.3256,2.3246,2.3249,2.3286,2.3284,2.326,2.3257,2.3261,2.3285,2.3297,2.33,2.3358,2.3304,2.3307,2.3308,2.331,2.3463,2.3465,0,0,0,0,0,0,2.3207,2.3212,2.328,2.3282,2.3227,2.3249,2.3252,2.3271,2.3284,2.3284,2.3263,2.3259,2.3292,2.3296,2.3301,2.3371,2.3307,2.331,2.3312,2.3461,2.3463,2.3466,0,0,0,0,0,0,2.3205,2.3213,2.3279,2.3246,2.3254,2.3253,2.3274,2.3272,2.3284,2.3286,2.3285,2.3275,2.3291,2.3297,2.3341,2.3371,2.3311,2.3314,2.3458,2.3462,2.3465,2.3512,0,0,0,0,0,0,2.3203,2.3213,2.3237,2.3247,2.3256,2.3319,2.3276,2.3274,2.3289,2.3285,2.3297,2.3297,2.329,2.3337,2.3344,2.3375,2.3317,2.3455,2.346,2.3464,2.3508,2.3517,2.3524,0,0,0,0,0,2.3199,2.325,2.3238,2.3247,2.3286,2.3321,2.3326,2.3316,2.3292,2.3315,2.3316,2.3297,2.3367,2.3341,2.335,2.3382,2.3453,2.3458,2.3463,2.3504,2.3515,2.3524,0,0,0,0,0,0,2.3243,2.3251,2.3238,2.3294,2.3307,2.3315,2.3344,2.3329,2.3349,2.3344,2.3331,2.3334,2.3381,2.3386,2.3357,2.344,2.3406,2.3413,2.3435,2.3445,2.3453,2.345,2.3319,0,0,0,0,0,2.3259,2.3288,2.3293,2.3341,2.3348,2.3345,2.336,2.3351,2.3365,2.337,2.3375,2.3388,2.3412,2.3429,2.3452,2.3509,2.351,2.3535,2.3543,2.355,2.3555,2.3583,2.3593,2.3482,2.3482,2.3482,0,0,2.3293,2.3301,2.332,2.335,2.3359,2.3388,2.335,2.3383,2.3403,2.3375,2.3417,2.342,2.3434,2.3484,2.3507,2.349,2.3586,2.3556,2.3561,2.3563,2.3589,2.3599,2.3609,2.3485,2.3485,2.3484,0,0,2.3368,2.3378,2.3417,2.3427,2.3442,2.3439,2.3448,2.3458,2.3459,2.3501,2.3479,2.3504,2.3547,2.3557,2.3568,2.3645,2.3626,2.3653,2.3695,2.3722,2.373,2.3738,2.3763,2.3772,2.3658,2.3659,2.3659,0,2.3408,2.3451,2.344,2.3473,2.3486,2.3462,2.35,2.3511,2.3532,2.3541,2.3522,2.3574,2.3582,2.3633,2.3651,2.3662,2.3671,2.365,2.373,2.3738,2.3745,2.3768,2.3778,2.3661,2.3661,2.3661,2.366,0,2.3497,2.3527,2.3558,2.3578,2.3594,2.3631,2.3624,2.3642,2.3632,2.363,2.3672,2.368,2.3703,2.3715,2.3706,2.3763,2.3752,2.3732,2.3698,2.3758,2.378,2.3789,2.3666,2.3665,2.3664,2.3663,0,0,2.3601,2.3614,2.3625,2.3632,2.3645,2.3668,2.3702,2.3725,2.3739,2.3754,2.3781,2.3818,2.3799,2.3811,2.3802,2.3826,2.3883,2.3803,2.3803,2.3815,2.3944,2.3958,2.3969,2.3872,2.3873,2.3875,2.3942,0,2.3674,2.3733,2.3724,2.3781,2.3806,2.3783,2.3812,2.3823,2.3822,2.3844,2.3843,2.3868,2.3842,2.3849,2.3872,2.3871,2.3908,2.3867,2.3895,2.3896,2.389,2.3981,2.3996,2.4059,2.3951,2.3953,2.3954,0,2.3768,2.3785,2.3844,2.3851,2.3861,2.3888,2.3906,2.3928,2.3939,2.3936,2.3949,2.3936,2.3968,2.3934,2.3978,2.395,2.3961,2.3962,2.3964,2.3965,2.3927,2.3982,2.4079,2.4088,2.3968,2.3967,2.3966,0,2.3834,2.3873,2.3912,2.392,2.3929,2.3948,2.3953,2.3962,2.3975,2.3991,2.3999,2.4019,2.403,2.4045,2.4036,2.4013,2.408,2.4047,2.4078,2.4078,2.4092,2.4091,2.419,2.4103,2.4103,2.4102,2.4102,0,2.3916,2.3952,2.3942,2.3966,2.4005,2.3994,2.4033,2.4035,2.4042,2.4065,2.4047,2.4069,2.4057,2.4078,2.4072,2.4107,2.4113,2.4111,2.4108,2.4111,2.4111,2.4117,2.4112,2.4105,2.4104,2.4104,2.4104,0,2.3996,2.3991,2.4032,2.4037,2.4039,2.4068,2.4071,2.4093,2.4091,2.412,2.4127,2.4123,2.4146,2.414,2.4165,2.4161,2.4205,2.4198,2.4201,2.4199,2.4229,2.4226,2.4334,2.4347,2.4253,2.4254,2.4255,0,2.4047,2.4074,2.4082,2.4096,2.4102,2.4125,2.4138,2.4127,2.4141,2.4154,2.4174,2.4196,2.4212,2.425,2.4249,2.4268,2.426,2.4297,2.4263,2.4264,2.4258,2.4255,2.4257,2.4303,2.4304,2.4305,2.4306,0,2.4138,2.4133,2.4153,2.4171,2.4186,2.42,2.4212,2.4225,2.4214,2.4231,2.4254,2.4267,2.4292,2.4313,2.433,2.4334,2.4318,2.4317,2.4325,2.4327,2.4327,2.4325,2.4217,2.4314,2.4313,2.4313,2.4312,2.4312,2.4203,2.4225,2.4233,2.4255,2.4262,2.4274,2.4294,2.4293,2.4313,2.4332,2.4324,2.4351,2.4359,2.438,2.4386,2.4405,2.4391,2.4403,2.4406,2.4408,2.4411,2.4325,2.4409,2.4409,2.4408,2.4408,2.4408,0,2.4291,2.4294,2.4314,2.4331,2.4347,2.4331,2.4343,2.4357,2.438,2.439,2.4406,2.4431,2.4451,2.4452,2.447,2.4485,2.4478,2.449,2.4488,2.4488,2.4424,2.4414,2.4495,2.4495,2.4495,2.4495,2.4495,2.4495,2.4338,2.4373,2.4369,2.4408,2.4411,2.4436,2.4444,2.4453,2.446,2.449,2.4506,2.4506,2.4511,2.4529,2.4546,2.4545,2.4552,2.4566,2.4563,2.4502,2.4493,2.4485,2.4476,2.4568,2.4568,2.4625,2.4626,2.4626]},{"header":{"parameterUnit":"m.s-1","parameterCategory":1,"la1":30.2991,"la2":30.254,"lo1":-89.0895,"lo2":-89.0444,"dy":0.0017,"dx":0.0017,"nx":28,"ny":28,"refTime":"2025-05-14T21:00:00:Z","depth":0,"parameterNumber":3,"parameterNumberName":"V-component_of_WINDS"},"data":[0,0,0,0,0,0,0,0,0,0,0,0,0,0,0,0,0,0,0,0,0,0,0,0,0,0,0,0,0,0,0,0,0,0,0,0,0,0,0,0,0,0,0,0,0,0,0,0,0,0,0,0,0,0,0,0,0,0,6.3957,6.3959,0,6.4065,6.4066,6.4067,6.4021,6.4018,6.4016,6.4013,6.4117,6.4122,6.4127,0,0,0,0,0,0,0,0,0,0,0,0,0,6.3705,6.371,6.3957,6.3959,6.396,6.4065,6.4066,6.4067,6.4021,6.4018,6.4015,6.4012,6.4115,6.4121,6.4128,0,0,0,0,0,0,0,0,0,0,0,0,0,6.3813,6.3711,6.3957,6.395,6.395,6.4064,6.4066,6.4068,6.4022,6.4018,6.4014,6.4011,6.4113,6.4121,6.4129,6.4254,0,0,6.4152,6.4156,0,0,0,0,0,0,0,0,6.3807,6.3823,6.3949,6.395,6.3951,6.4026,6.4015,6.413,6.4023,6.3995,6.4013,6.4009,6.4089,6.4099,6.4127,6.4259,6.4263,6.4153,6.4158,6.4161,6.4163,0,0,0,0,0,0,0,6.38,6.3818,6.4,6.3951,6.3952,6.3939,6.395,6.4037,6.4062,6.3997,6.3994,6.4007,6.4089,6.412,6.4129,6.4265,6.4153,6.416,6.4164,6.4167,6.4503,6.4507,0,0,0,0,0,0,6.3793,6.3812,6.3996,6.4003,6.3868,6.3946,6.3959,6.4006,6.4061,6.4066,6.4011,6.4005,6.4109,6.412,6.4133,6.4283,6.4161,6.4168,6.4173,6.4499,6.4504,6.4508,0,0,0,0,0,0,6.3788,6.381,6.3992,6.3907,6.3929,6.3955,6.4008,6.401,6.4041,6.4072,6.4075,6.4038,6.4106,6.4122,6.4224,6.4286,6.4172,6.4179,6.4494,6.45,6.4506,6.4585,0,0,0,0,0,0,6.3781,6.3809,6.3859,6.3908,6.3933,6.4084,6.4012,6.4015,6.4055,6.4048,6.4099,6.4103,6.4104,6.4213,6.4232,6.4295,6.4185,6.4488,6.4497,6.4504,6.4577,6.4593,6.4607,0,0,0,0,0,6.3772,6.3875,6.3861,6.3884,6.3997,6.4088,6.4102,6.4103,6.406,6.4109,6.4129,6.4101,6.4276,6.4224,6.4245,6.4311,6.4484,6.4494,6.4503,6.457,6.459,6.4606,0,0,0,0,0,0,6.383,6.3882,6.3867,6.399,6.4035,6.408,6.4142,6.4124,6.4181,6.4173,6.4169,6.4181,6.4287,6.4309,6.425,6.4434,6.4373,6.4387,6.4416,6.4436,6.445,6.4443,6.4191,0,0,0,0,0,6.3858,6.393,6.3969,6.4074,6.4097,6.4116,6.4156,6.4153,6.4199,6.4217,6.4244,6.4288,6.4352,6.4395,6.4456,6.4579,6.4588,6.4634,6.4649,6.4662,6.4674,6.4739,6.476,6.454,6.454,6.454,0,0,6.3914,6.3951,6.3997,6.4086,6.4121,6.4194,6.4132,6.4212,6.4265,6.4228,6.4327,6.4349,6.4397,6.451,6.4561,6.4531,6.4737,6.4674,6.4683,6.4689,6.4751,6.4772,6.4791,6.4546,6.4545,6.4544,0,0,6.4055,6.4091,6.4181,6.4218,6.4272,6.4283,6.4305,6.4353,6.4366,6.4466,6.4439,6.4501,6.4612,6.4648,6.468,6.4833,6.4809,6.4852,6.4931,6.4995,6.5012,6.5028,6.5082,6.5101,6.4864,6.4865,6.4865,0,6.4118,6.4229,6.4229,6.4311,6.4351,6.4323,6.4413,6.4447,6.4517,6.4544,6.451,6.4649,6.468,6.48,6.4837,6.4865,6.4888,6.4847,6.501,6.5026,6.504,6.5091,6.5111,6.487,6.4869,6.4868,6.4868,0,6.4303,6.438,6.4446,6.4517,6.4564,6.4649,6.466,6.4707,6.4699,6.4713,6.4814,6.4849,6.4917,6.4945,6.4938,6.5064,6.5044,6.501,6.4949,6.5066,6.5114,6.5134,6.4877,6.4875,6.4873,6.4872,0,0,6.4485,6.4555,6.4579,6.4611,6.4667,6.4725,6.4808,6.4876,6.4916,6.4964,6.5032,6.5127,6.5096,6.5133,6.5129,6.5185,6.5302,6.5144,6.5145,6.5172,6.5443,6.5468,6.5491,6.5287,6.529,6.5293,6.5439,0,6.463,6.4779,6.4781,6.4916,6.4986,6.4959,6.5031,6.5072,6.5087,6.5146,6.5161,6.5228,6.5183,6.5205,6.5259,6.5277,6.5357,6.5266,6.5348,6.5351,6.5338,6.5516,6.5544,6.5679,6.5457,6.5461,6.5463,0,6.482,6.4876,6.5019,6.5065,6.5094,6.516,6.5221,6.5279,6.5324,6.533,6.5372,6.5359,6.544,6.5376,6.5488,6.5426,6.5459,6.5473,6.5478,6.5486,6.5415,6.5529,6.5723,6.5743,6.5493,6.549,6.5488,0,6.4938,6.5049,6.5149,6.5177,6.5233,6.5279,6.5304,6.5345,6.5385,6.5438,6.5464,6.5525,6.5558,6.5604,6.5607,6.556,6.5719,6.5656,6.5726,6.5726,6.5761,6.5759,6.5963,6.5782,6.5782,6.5782,6.5781,0,6.5099,6.5188,6.5203,6.5265,6.5362,6.5362,6.5457,6.5478,6.5515,6.5578,6.5557,6.5616,6.5616,6.5676,6.5678,6.5769,6.5784,6.5791,6.579,6.5793,6.5792,6.5815,6.5806,6.5787,6.5786,6.5785,6.5784,0,6.5248,6.5262,6.5369,6.5414,6.5427,6.5496,6.5533,6.559,6.5602,6.5682,6.5701,6.572,6.5789,6.5796,6.5876,6.5877,6.5988,6.5977,6.5973,6.5972,6.6041,6.6035,6.6268,6.6298,6.6097,6.6099,6.6101,0,6.5351,6.5419,6.5471,6.5513,6.5541,6.5608,6.5649,6.5651,6.5694,6.575,6.58,6.5867,6.5921,6.6032,6.6051,6.6111,6.6102,6.6179,6.6111,6.6111,6.6103,6.6099,6.6105,6.6193,6.6195,6.6197,6.6198,0,6.5532,6.5536,6.5597,6.5661,6.5712,6.5761,6.5808,6.5842,6.5849,6.5899,6.597,6.6012,6.6093,6.616,6.6219,6.6241,6.6221,6.6219,6.6239,6.6243,6.6238,6.6241,6.601,6.6214,6.6213,6.6211,6.6211,6.621,6.5661,6.572,6.5766,6.5834,6.587,6.5914,6.597,6.5989,6.605,6.6118,6.6114,6.6192,6.6233,6.6311,6.6338,6.6397,6.6371,6.6399,6.6406,6.6414,6.6421,6.6228,6.6408,6.6407,6.6407,6.6406,6.6406,0,6.5841,6.5869,6.5933,6.5999,6.6053,6.603,6.608,6.6126,6.6196,6.6236,6.629,6.6371,6.6435,6.6459,6.6521,6.6564,6.6556,6.658,6.6577,6.6582,6.6441,6.6418,6.6585,6.6585,6.6585,6.6585,6.6585,6.6585,6.5941,6.6039,6.6048,6.6162,6.6188,6.6266,6.6297,6.6336,6.6369,6.6461,6.6515,6.6531,6.6564,6.6628,6.6685,6.669,6.6713,6.6742,6.6743,6.661,6.6592,6.6575,6.6554,6.6747,6.6747,6.688,6.6881,6.6882]}]]